Home > Weather > Midway > Past weeks

Flag for US Minor Outlying Islands Weather for the Past 2 Weeks in Midway, US Minor Outlying Islands

Now
63 °F

Light rain. Fog.


Feels Like: 63 °F
Forecast: 62 / 71 °F
Wind: 9 mph from Northwest

Location: Midway Island Naval Air Facility

Current Time: Feb 8, 2016 at 5:06:27 PM

Latest Report: Feb 8, 2016 at 4:17 PM


Visibility: 3 mi

Pressure: 30.01 "Hg

Humidity: 100%

Dew point: 63 °F

Location of MidwayLocation

Historic Weather in Midway — Graph

°F

Midway Temperature Yesterday

Maximum temperature yesterday: 71 °F (at 1:01 PM)
Minimum temperature yesterday: 50 °F (at 5:01 AM)
Average temperature yesterday: 63 °F

High & Low Weather Summary for the Past Weeks

 TemperatureHumidityPressure
High78 °F (Feb 4, 2:01 PM)100% (Feb 4, 4:20 AM)30.37 "Hg (Feb 4, 4:20 AM)
Low50 °F (Feb 7, 5:01 AM)42% (Feb 5, 12:01 PM)29.78 "Hg (Feb 4, 4:01 PM)
Average66 °F74%30.05 "Hg
* Reported Jan 24 4:01 PM — Feb 8 4:01 PM, Midway, Weather by CustomWeather, © 2016

Note: Actual official high and low records may vary slightly from our data, if they occured in-between our weather recording intervals... More about our weather records

Advertising

Midway Weather History for the Previous 24 Hours

 ConditionsComfort  
Time TempWeatherWind HumidityBarometerVisibility
4:01 PM
Mon, Feb 8
64 °FLight rain. Fog.6 mph94%30.01 "Hg3 mi
3:01 PM66 °FMostly cloudy.6 mph93%30.01 "Hg9 mi
2:30 PM66 °FLight rain. Fog.6 mph94%30.01 "Hg5 mi
2:01 PM66 °FLight rain. Fog.13 mph94%30.02 "Hg2 mi
1:27 PM70 °FLight rain. Fog.15 mph83%30.03 "Hg2 mi
1:14 PM68 °FFog.18 mph88%30.03 "Hg3 mi
12:01 PM68 °FMore clouds than sun.15 mph84%30.06 "Hg6 mi
11:01 AM70 °FOvercast.15 mph73%30.08 "Hg7 mi
10:01 AM72 °FOvercast.17 mph73%30.07 "Hg10 mi
9:29 AM70 °FOvercast.18 mph78%30.07 "Hg10 mi
9:01 AM69 °FOvercast.16 mph79%30.07 "Hg10 mi
8:01 AM68 °FPassing clouds.18 mph78%30.06 "Hg10 mi
7:01 AM67 °FPassing clouds.20 mph79%30.05 "Hg10 mi
6:01 AM66 °FClear.20 mph78%30.04 "Hg10 mi
5:01 AM66 °FPassing clouds.18 mph78%30.05 "Hg10 mi
4:01 AM66 °FClear.17 mph75%30.05 "Hg10 mi
3:01 AM66 °FClear.16 mph78%30.07 "Hg10 mi
2:01 AM66 °FClear.18 mph78%30.09 "Hg10 mi
1:01 AM65 °FPassing clouds.14 mph81%30.11 "Hg10 mi
12:01 AM67 °FPassing clouds.16 mph79%30.12 "Hg10 mi
11:01 PM
Sun, Feb 7
67 °FPassing clouds.17 mph71%30.13 "Hg10 mi
10:01 PM66 °FPassing clouds.17 mph73%30.14 "Hg10 mi
9:01 PM67 °FPassing clouds.17 mph66%30.15 "Hg10 mi
8:01 PM67 °FOvercast.16 mph68%30.16 "Hg10 mi
7:01 PM66 °FPassing clouds.15 mph65%30.16 "Hg10 mi
6:01 PM68 °FPartly sunny.16 mph61%30.16 "Hg10 mi
5:01 PM71 °FScattered clouds.16 mph51%30.17 "Hg10 mi
Weather by CustomWeather, © 2016

See weather overviewHow to use our weather pages